M I D A S
Marine Information and Data Acquisition System
Tripno 1204 of the Zeeleeuw from 2007-01-23 05:40:40 to 2007-01-23 19:03:12
Back to CruiseResearch ActivitiesStationsMapUnderway DataData graphs

EquipmentUnitsComments
TimeDGPSUTC
LatitudeDGPSDM.mWGS84
LongitudeDGPSDM.mWGS84
SpeedMeteo Stationm/sRelative wind speed
DirectionMeteo StationdegRelative wind direction
TemperatureMeteo Stationdeg CelciusAir temperature
PressureMeteo StationPaAtmospheric pressure
HumidityMeteo Station%Relative humidity
Missing or incorrect values are displayed as -999
Metereological data collected by the RV Zeeleeuw from 2007-01-23 05:41:37 to 2007-01-23 19:14:58
                                                                                    Next 1000 lines
Time Latitude Longitude Speed Direction Temperature Pressure Humidity
2007-01-23 05:41:47 51°13.599 2°56.092 -999 -999 -999 -999 -999
2007-01-23 05:41:52 51°13.599 2°56.091 -999 -999 -999 -999 -999
2007-01-23 05:41:57 51°13.599 2°56.09 -999 -999 -999 -999 -999
2007-01-23 05:42:02 51°13.6 2°56.088 -999 -999 -999 -999 -999
2007-01-23 05:42:07 51°13.6 2°56.086 -999 -999 -999 -999 -999
2007-01-23 05:42:12 51°13.601 2°56.084 -999 -999 -999 -999 -999
2007-01-23 05:42:16 51°13.602 2°56.083 -999 -999 -999 -999 -999
2007-01-23 05:42:21 51°13.602 2°56.08 -999 -999 -999 -999 -999
2007-01-23 05:42:27 51°13.603 2°56.077 -999 -999 -999 -999 -999
2007-01-23 05:42:32 51°13.604 2°56.075 -999 -999 -999 -999 -999
2007-01-23 05:42:37 51°13.605 2°56.072 -999 -999 -999 -999 -999
2007-01-23 05:42:42 51°13.605 2°56.069 -999 -999 -999 -999 -999
2007-01-23 05:42:47 51°13.606 2°56.065 -999 -999 -999 -999 -999
2007-01-23 05:42:52 51°13.608 2°56.061 -999 -999 -999 -999 -999
2007-01-23 05:42:57 51°13.609 2°56.057 -999 -999 -999 -999 -999
2007-01-23 05:43:02 51°13.61 2°56.052 -999 -999 -999 -999 -999
2007-01-23 05:43:07 51°13.612 2°56.047 -999 -999 -999 -999 -999
2007-01-23 05:43:12 51°13.613 2°56.042 -999 -999 -999 -999 -999
2007-01-23 05:43:17 51°13.615 2°56.036 -999 -999 -999 -999 -999
2007-01-23 05:43:22 51°13.617 2°56.029 -999 -999 -999 -999 -999
2007-01-23 05:43:27 51°13.619 2°56.023 -999 -999 -999 -999 -999
2007-01-23 05:43:32 51°13.62 2°56.016 -999 -999 -999 -999 -999
2007-01-23 05:43:37 51°13.623 2°56.008 -999 -999 -999 -999 -999
2007-01-23 05:43:42 51°13.625 2°56.001 -999 -999 -999 -999 -999
2007-01-23 05:43:47 51°13.627 2°55.993 -999 -999 -999 -999 -999
2007-01-23 05:43:52 51°13.629 2°55.986 -999 -999 -999 -999 -999
2007-01-23 05:43:57 51°13.632 2°55.978 -999 -999 -999 -999 -999
2007-01-23 05:44:02 51°13.635 2°55.97 -999 -999 -999 -999 -999
2007-01-23 05:44:07 51°13.638 2°55.962 -999 -999 -999 -999 -999
2007-01-23 05:44:12 51°13.641 2°55.953 -999 -999 -999 -999 -999
2007-01-23 05:44:17 51°13.644 2°55.945 -999 -999 -999 -999 -999
2007-01-23 05:44:22 51°13.648 2°55.937 -999 -999 -999 -999 -999
2007-01-23 05:44:27 51°13.651 2°55.929 -999 -999 -999 -999 -999
2007-01-23 05:44:32 51°13.654 2°55.921 -999 -999 -999 -999 -999
2007-01-23 05:44:37 51°13.658 2°55.913 -999 -999 -999 -999 -999
2007-01-23 05:44:42 51°13.661 2°55.906 -999 -999 -999 -999 -999
2007-01-23 05:44:47 51°13.664 2°55.898 -999 -999 -999 -999 -999
2007-01-23 05:44:52 51°13.667 2°55.891 -999 -999 -999 -999 -999
2007-01-23 05:44:57 51°13.671 2°55.883 -999 -999 -999 -999 -999
2007-01-23 05:45:02 51°13.674 2°55.876 -999 -999 -999 -999 -999
2007-01-23 05:45:07 51°13.677 2°55.868 -999 -999 -999 -999 -999
2007-01-23 05:45:12 51°13.68 2°55.86 -999 -999 -999 -999 -999
2007-01-23 05:45:17 51°13.684 2°55.853 -999 -999 -999 -999 -999
2007-01-23 05:45:22 51°13.687 2°55.846 -999 -999 -999 -999 -999
2007-01-23 05:45:27 51°13.69 2°55.839 -999 -999 -999 -999 -999
2007-01-23 05:45:32 51°13.693 2°55.832 -999 -999 -999 -999 -999
2007-01-23 05:45:37 51°13.696 2°55.825 -999 -999 -999 -999 -999
2007-01-23 05:45:42 51°13.699 2°55.818 -999 -999 -999 -999 -999
2007-01-23 05:45:47 51°13.702 2°55.811 -999 -999 -999 -999 -999
2007-01-23 05:45:52 51°13.704 2°55.804 -999 -999 -999 -999 -999
2007-01-23 05:45:57 51°13.707 2°55.798 -999 -999 -999 -999 -999
2007-01-23 05:46:02 51°13.709 2°55.791 -999 -999 -999 -999 -999
2007-01-23 05:46:07 51°13.711 2°55.785 -999 -999 -999 -999 -999
2007-01-23 05:46:12 51°13.713 2°55.778 -999 -999 -999 -999 -999
2007-01-23 05:46:16 51°13.715 2°55.773 -999 -999 -999 -999 -999
2007-01-23 05:46:22 51°13.717 2°55.766 -999 -999 -999 -999 -999
2007-01-23 05:46:27 51°13.719 2°55.76 -999 -999 -999 -999 -999
2007-01-23 05:46:32 51°13.721 2°55.754 -999 -999 -999 -999 -999
2007-01-23 05:46:36 51°13.722 2°55.749 -999 -999 -999 -999 -999
2007-01-23 05:46:42 51°13.724 2°55.742 -999 -999 -999 -999 -999
2007-01-23 05:46:47 51°13.725 2°55.737 -999 -999 -999 -999 -999
2007-01-23 05:46:52 51°13.726 2°55.731 -999 -999 -999 -999 -999
2007-01-23 05:46:57 51°13.727 2°55.726 -999 -999 -999 -999 -999
2007-01-23 05:47:01 51°13.728 2°55.722 -999 -999 -999 -999 -999
2007-01-23 05:47:07 51°13.729 2°55.717 -999 -999 -999 -999 -999
2007-01-23 05:47:12 51°13.73 2°55.713 -999 -999 -999 -999 -999
2007-01-23 05:47:17 51°13.731 2°55.71 -999 -999 -999 -999 -999
2007-01-23 05:47:22 51°13.731 2°55.707 -999 -999 -999 -999 -999
2007-01-23 05:47:26 51°13.731 2°55.705 -999 -999 -999 -999 -999
2007-01-23 05:47:32 51°13.732 2°55.704 -999 -999 -999 -999 -999
2007-01-23 05:47:37 51°13.733 2°55.703 -999 -999 -999 -999 -999
2007-01-23 05:47:42 51°13.733 2°55.703 -999 -999 -999 -999 -999
2007-01-23 05:47:46 51°13.734 2°55.704 -999 -999 -999 -999 -999
2007-01-23 05:47:52 51°13.735 2°55.705 -999 -999 -999 -999 -999
2007-01-23 05:47:57 51°13.736 2°55.707 -999 -999 -999 -999 -999
2007-01-23 05:48:02 51°13.737 2°55.709 -999 -999 -999 -999 -999
2007-01-23 05:48:06 51°13.737 2°55.711 -999 -999 -999 -999 -999
2007-01-23 05:48:12 51°13.739 2°55.713 -999 -999 -999 -999 -999
2007-01-23 05:48:17 51°13.74 2°55.714 -999 -999 -999 -999 -999
2007-01-23 05:48:22 51°13.741 2°55.716 -999 -999 -999 -999 -999
2007-01-23 05:48:27 51°13.742 2°55.716 -999 -999 -999 -999 -999
2007-01-23 05:48:32 51°13.743 2°55.717 -999 -999 -999 -999 -999
2007-01-23 05:48:36 51°13.743 2°55.717 -999 -999 -999 -999 -999
2007-01-23 05:48:42 51°13.744 2°55.717 -999 -999 -999 -999 -999
2007-01-23 05:48:47 51°13.744 2°55.717 -999 -999 -999 -999 -999
2007-01-23 05:48:52 51°13.744 2°55.716 -999 -999 -999 -999 -999
2007-01-23 05:48:57 51°13.744 2°55.715 -999 -999 -999 -999 -999
2007-01-23 05:49:02 51°13.743 2°55.713 -999 -999 -999 -999 -999
2007-01-23 05:49:07 51°13.743 2°55.712 -999 -999 -999 -999 -999
2007-01-23 05:49:12 51°13.742 2°55.71 -999 -999 -999 -999 -999
2007-01-23 05:49:17 51°13.741 2°55.708 -999 -999 -999 -999 -999
2007-01-23 05:49:22 51°13.74 2°55.707 -999 -999 -999 -999 -999
2007-01-23 05:49:27 51°13.74 2°55.705 -999 -999 -999 -999 -999
2007-01-23 05:49:32 51°13.739 2°55.703 -999 -999 -999 -999 -999
2007-01-23 05:49:37 51°13.738 2°55.701 -999 -999 -999 -999 -999
2007-01-23 05:49:42 51°13.737 2°55.7 -999 -999 -999 -999 -999
2007-01-23 05:49:47 51°13.737 2°55.698 -999 -999 -999 -999 -999
2007-01-23 05:49:52 51°13.736 2°55.698 -999 -999 -999 -999 -999
2007-01-23 05:49:57 51°13.736 2°55.697 -999 -999 -999 -999 -999
2007-01-23 05:50:02 51°13.736 2°55.696 -999 -999 -999 -999 -999
2007-01-23 05:50:06 51°13.737 2°55.696 -999 -999 -999 -999 -999
2007-01-23 05:50:12 51°13.738 2°55.695 -999 -999 -999 -999 -999
2007-01-23 05:50:17 51°13.739 2°55.695 -999 -999 -999 -999 -999
2007-01-23 05:50:22 51°13.74 2°55.695 -999 -999 -999 -999 -999
2007-01-23 05:50:27 51°13.742 2°55.695 -999 -999 -999 -999 -999
2007-01-23 05:50:32 51°13.744 2°55.695 -999 -999 -999 -999 -999
2007-01-23 05:50:37 51°13.746 2°55.695 -999 -999 -999 -999 -999
2007-01-23 05:50:42 51°13.748 2°55.694 -999 -999 -999 -999 -999
2007-01-23 05:50:47 51°13.75 2°55.694 -999 -999 -999 -999 -999
2007-01-23 05:50:52 51°13.753 2°55.692 -999 -999 -999 -999 -999
2007-01-23 05:50:56 51°13.755 2°55.692 -999 -999 -999 -999 -999
2007-01-23 05:51:02 51°13.757 2°55.69 -999 -999 -999 -999 -999
2007-01-23 05:51:07 51°13.76 2°55.689 -999 -999 -999 -999 -999
2007-01-23 05:51:12 51°13.762 2°55.688 -999 -999 -999 -999 -999
2007-01-23 05:51:17 51°13.764 2°55.686 -999 -999 -999 -999 -999
2007-01-23 05:51:21 51°13.767 2°55.684 -999 -999 -999 -999 -999
2007-01-23 05:51:27 51°13.77 2°55.682 -999 -999 -999 -999 -999
2007-01-23 05:51:32 51°13.773 2°55.679 -999 -999 -999 -999 -999
2007-01-23 05:51:37 51°13.777 2°55.676 -999 -999 -999 -999 -999
2007-01-23 05:51:42 51°13.781 2°55.673 -999 -999 -999 -999 -999
2007-01-23 05:51:47 51°13.786 2°55.67 -999 -999 -999 -999 -999
2007-01-23 05:51:52 51°13.791 2°55.666 -999 -999 -999 -999 -999
2007-01-23 05:51:57 51°13.796 2°55.662 -999 -999 -999 -999 -999
2007-01-23 05:52:02 51°13.802 2°55.658 -999 -999 -999 -999 -999
2007-01-23 05:52:06 51°13.807 2°55.655 -999 -999 -999 -999 -999
2007-01-23 05:52:12 51°13.815 2°55.649 -999 -999 -999 -999 -999
2007-01-23 05:52:17 51°13.821 2°55.644 -999 -999 -999 -999 -999
2007-01-23 05:52:22 51°13.828 2°55.639 -999 -999 -999 -999 -999
2007-01-23 05:52:26 51°13.834 2°55.635 -999 -999 -999 -999 -999
2007-01-23 05:52:32 51°13.843 2°55.629 -999 -999 -999 -999 -999
2007-01-23 05:52:37 51°13.851 2°55.623 -999 -999 -999 -999 -999
2007-01-23 05:52:42 51°13.858 2°55.617 -999 -999 -999 -999 -999
2007-01-23 05:52:46 51°13.865 2°55.613 -999 -999 -999 -999 -999
2007-01-23 05:52:52 51°13.875 2°55.606 -999 -999 -999 -999 -999
2007-01-23 05:52:56 51°13.881 2°55.601 -999 -999 -999 -999 -999
2007-01-23 05:53:02 51°13.891 2°55.594 -999 -999 -999 -999 -999
2007-01-23 05:53:07 51°13.9 2°55.588 -999 -999 -999 -999 -999
2007-01-23 05:53:12 51°13.908 2°55.582 -999 -999 -999 -999 -999
2007-01-23 05:53:16 51°13.915 2°55.577 -999 -999 -999 -999 -999
2007-01-23 05:53:22 51°13.926 2°55.57 -999 -999 -999 -999 -999
2007-01-23 05:53:27 51°13.934 2°55.563 -999 -999 -999 -999 -999
2007-01-23 05:53:32 51°13.943 2°55.558 -999 -999 -999 -999 -999
2007-01-23 05:53:37 51°13.952 2°55.551 -999 -999 -999 -999 -999
2007-01-23 05:53:41 51°13.959 2°55.546 -999 -999 -999 -999 -999
2007-01-23 05:53:47 51°13.969 2°55.539 -999 -999 -999 -999 -999
2007-01-23 05:53:52 51°13.978 2°55.532 -999 -999 -999 -999 -999
2007-01-23 05:53:57 51°13.987 2°55.526 -999 -999 -999 -999 -999
2007-01-23 05:54:02 51°13.996 2°55.519 -999 -999 -999 -999 -999
2007-01-23 05:54:07 51°14.005 2°55.513 -999 -999 -999 -999 -999
2007-01-23 05:54:12 51°14.014 2°55.506 -999 -999 -999 -999 -999
2007-01-23 05:54:17 51°14.023 2°55.5 -999 -999 -999 -999 -999
2007-01-23 05:54:21 51°14.03 2°55.494 -999 -999 -999 -999 -999
2007-01-23 05:54:26 51°14.039 2°55.488 -999 -999 -999 -999 -999
2007-01-23 05:54:32 51°14.05 2°55.48 -999 -999 -999 -999 -999
2007-01-23 05:54:37 51°14.059 2°55.473 -999 -999 -999 -999 -999
2007-01-23 05:54:42 51°14.068 2°55.467 -999 -999 -999 -999 -999
2007-01-23 05:54:46 51°14.075 2°55.461 -999 -999 -999 -999 -999
2007-01-23 05:54:52 51°14.085 2°55.453 -999 -999 -999 -999 -999
2007-01-23 05:54:57 51°14.094 2°55.446 -999 -999 -999 -999 -999
2007-01-23 05:55:02 51°14.103 2°55.439 -999 -999 -999 -999 -999
2007-01-23 05:55:07 51°14.112 2°55.432 -999 -999 -999 -999 -999
2007-01-23 05:55:12 51°14.121 2°55.424 -999 -999 -999 -999 -999
2007-01-23 05:55:17 51°14.13 2°55.416 -999 -999 -999 -999 -999
2007-01-23 05:55:22 51°14.139 2°55.408 -999 -999 -999 -999 -999
2007-01-23 05:55:27 51°14.147 2°55.4 -999 -999 -999 -999 -999
2007-01-23 05:55:32 51°14.155 2°55.391 -999 -999 -999 -999 -999
2007-01-23 05:55:37 51°14.164 2°55.382 -999 -999 -999 -999 -999
2007-01-23 05:55:42 51°14.172 2°55.373 -999 -999 -999 -999 -999
2007-01-23 05:55:47 51°14.181 2°55.364 -999 -999 -999 -999 -999
2007-01-23 05:55:52 51°14.189 2°55.354 -999 -999 -999 -999 -999
2007-01-23 05:55:57 51°14.197 2°55.345 -999 -999 -999 -999 -999
2007-01-23 05:56:01 51°14.204 2°55.337 -999 -999 -999 -999 -999
2007-01-23 05:56:07 51°14.213 2°55.325 -999 -999 -999 -999 -999
2007-01-23 05:56:12 51°14.221 2°55.314 -999 -999 -999 -999 -999
2007-01-23 05:56:17 51°14.229 2°55.303 -999 -999 -999 -999 -999
2007-01-23 05:56:21 51°14.235 2°55.294 -999 -999 -999 -999 -999
2007-01-23 05:56:27 51°14.244 2°55.281 -999 -999 -999 -999 -999
2007-01-23 05:56:32 51°14.251 2°55.269 -999 -999 -999 -999 -999
2007-01-23 05:56:37 51°14.258 2°55.258 -999 -999 -999 -999 -999
2007-01-23 05:56:42 51°14.265 2°55.246 -999 -999 -999 -999 -999
2007-01-23 05:56:46 51°14.271 2°55.236 -999 -999 -999 -999 -999
2007-01-23 05:56:52 51°14.279 2°55.221 -999 -999 -999 -999 -999
2007-01-23 05:56:57 51°14.286 2°55.208 -999 -999 -999 -999 -999
2007-01-23 05:57:02 51°14.293 2°55.194 -999 -999 -999 -999 -999
2007-01-23 05:57:07 51°14.301 2°55.18 -999 -999 -999 -999 -999
2007-01-23 05:57:12 51°14.308 2°55.166 -999 -999 -999 -999 -999
2007-01-23 05:57:17 51°14.316 2°55.151 -999 -999 -999 -999 -999
2007-01-23 05:57:22 51°14.325 2°55.136 -999 -999 -999 -999 -999
2007-01-23 05:57:26 51°14.331 2°55.124 -999 -999 -999 -999 -999
2007-01-23 05:57:32 51°14.342 2°55.105 -999 -999 -999 -999 -999
2007-01-23 05:57:37 51°14.35 2°55.09 -999 -999 -999 -999 -999
2007-01-23 05:57:42 51°14.359 2°55.074 -999 -999 -999 -999 -999
2007-01-23 05:57:47 51°14.369 2°55.059 -999 -999 -999 -999 -999
2007-01-23 05:57:52 51°14.378 2°55.042 -999 -999 -999 -999 -999
2007-01-23 05:57:56 51°14.385 2°55.029 -999 -999 -999 -999 -999
2007-01-23 05:58:02 51°14.397 2°55.01 -999 -999 -999 -999 -999
2007-01-23 05:58:07 51°14.406 2°54.993 -999 -999 -999 -999 -999
2007-01-23 05:58:12 51°14.416 2°54.977 -999 -999 -999 -999 -999
2007-01-23 05:58:17 51°14.427 2°54.962 -999 -999 -999 -999 -999
2007-01-23 05:58:22 51°14.438 2°54.948 -999 -999 -999 -999 -999
2007-01-23 05:58:27 51°14.45 2°54.935 -999 -999 -999 -999 -999
2007-01-23 05:58:32 51°14.462 2°54.923 -999 -999 -999 -999 -999
2007-01-23 05:58:37 51°14.474 2°54.912 -999 -999 -999 -999 -999
2007-01-23 05:58:42 51°14.486 2°54.9 -999 -999 -999 -999 -999
2007-01-23 05:58:47 51°14.499 2°54.89 -999 -999 -999 -999 -999
2007-01-23 05:58:52 51°14.511 2°54.879 -999 -999 -999 -999 -999
2007-01-23 05:58:57 51°14.524 2°54.87 -999 -999 -999 -999 -999
2007-01-23 05:59:02 51°14.537 2°54.86 -999 -999 -999 -999 -999
2007-01-23 05:59:07 51°14.55 2°54.851 -999 -999 -999 -999 -999
2007-01-23 05:59:12 51°14.563 2°54.843 -999 -999 -999 -999 -999
2007-01-23 05:59:17 51°14.576 2°54.835 -999 -999 -999 -999 -999
2007-01-23 05:59:22 51°14.59 2°54.827 -999 -999 -999 -999 -999
2007-01-23 05:59:26 51°14.601 2°54.821 -999 -999 -999 -999 -999
2007-01-23 05:59:32 51°14.617 2°54.813 -999 -999 -999 -999 -999
2007-01-23 05:59:37 51°14.631 2°54.805 -999 -999 -999 -999 -999
2007-01-23 05:59:42 51°14.644 2°54.799 -999 -999 -999 -999 -999
2007-01-23 05:59:47 51°14.658 2°54.792 -999 -999 -999 -999 -999
2007-01-23 05:59:52 51°14.672 2°54.785 -999 -999 -999 -999 -999
2007-01-23 05:59:57 51°14.686 2°54.778 -999 -999 -999 -999 -999
2007-01-23 06:00:02 51°14.701 2°54.771 -999 -999 -999 -999 -999
2007-01-23 06:00:07 51°14.716 2°54.764 -999 -999 -999 -999 -999
2007-01-23 06:00:12 51°14.732 2°54.758 -999 -999 -999 -999 -999
2007-01-23 06:00:17 51°14.747 2°54.752 -999 -999 -999 -999 -999
2007-01-23 06:00:22 51°14.763 2°54.747 -999 -999 -999 -999 -999
2007-01-23 06:00:27 51°14.779 2°54.74 -999 -999 -999 -999 -999
2007-01-23 06:00:32 51°14.795 2°54.735 -999 -999 -999 -999 -999
2007-01-23 06:00:37 51°14.811 2°54.73 -999 -999 -999 -999 -999
2007-01-23 06:00:42 51°14.826 2°54.724 -999 -999 -999 -999 -999
2007-01-23 06:00:47 51°14.842 2°54.717 -999 -999 -999 -999 -999
2007-01-23 06:00:52 51°14.858 2°54.71 -999 -999 -999 -999 -999
2007-01-23 06:00:57 51°14.874 2°54.702 -999 -999 -999 -999 -999
2007-01-23 06:01:02 51°14.889 2°54.694 -999 -999 -999 -999 -999
2007-01-23 06:01:07 51°14.905 2°54.686 -999 -999 -999 -999 -999
2007-01-23 06:01:12 51°14.921 2°54.679 -999 -999 -999 -999 -999
2007-01-23 06:01:17 51°14.937 2°54.672 -999 -999 -999 -999 -999
2007-01-23 06:01:22 51°14.954 2°54.665 -999 -999 -999 -999 -999
2007-01-23 06:01:26 51°14.966 2°54.66 -999 -999 -999 -999 -999
2007-01-23 06:01:32 51°14.986 2°54.653 -999 -999 -999 -999 -999
2007-01-23 06:01:37 51°15.002 2°54.646 -999 -999 -999 -999 -999
2007-01-23 06:01:42 51°15.019 2°54.64 -999 -999 -999 -999 -999
2007-01-23 06:01:46 51°15.032 2°54.635 -999 -999 -999 -999 -999
2007-01-23 06:01:52 51°15.051 2°54.628 -999 -999 -999 -999 -999
2007-01-23 06:01:57 51°15.067 2°54.621 -999 -999 -999 -999 -999
2007-01-23 06:02:02 51°15.083 2°54.614 -999 -999 -999 -999 -999
2007-01-23 06:02:07 51°15.099 2°54.607 -999 -999 -999 -999 -999
2007-01-23 06:02:12 51°15.114 2°54.599 -999 -999 -999 -999 -999
2007-01-23 06:02:17 51°15.131 2°54.592 -999 -999 -999 -999 -999
2007-01-23 06:02:22 51°15.147 2°54.585 -999 -999 -999 -999 -999
2007-01-23 06:02:27 51°15.163 2°54.578 -999 -999 -999 -999 -999
2007-01-23 06:02:32 51°15.179 2°54.572 -999 -999 -999 -999 -999
2007-01-23 06:02:37 51°15.195 2°54.566 -999 -999 -999 -999 -999
2007-01-23 06:02:42 51°15.212 2°54.561 -999 -999 -999 -999 -999
2007-01-23 06:02:47 51°15.228 2°54.556 -999 -999 -999 -999 -999
2007-01-23 06:02:52 51°15.245 2°54.552 -999 -999 -999 -999 -999
2007-01-23 06:02:57 51°15.261 2°54.547 -999 -999 -999 -999 -999
2007-01-23 06:03:02 51°15.278 2°54.541 -999 -999 -999 -999 -999
2007-01-23 06:03:07 51°15.294 2°54.535 -999 -999 -999 -999 -999
2007-01-23 06:03:12 51°15.311 2°54.528 -999 -999 -999 -999 -999
2007-01-23 06:03:17 51°15.326 2°54.519 -999 -999 -999 -999 -999
2007-01-23 06:03:22 51°15.342 2°54.51 -999 -999 -999 -999 -999
2007-01-23 06:03:26 51°15.355 2°54.502 -999 -999 -999 -999 -999
2007-01-23 06:03:32 51°15.373 2°54.49 -999 -999 -999 -999 -999
2007-01-23 06:03:37 51°15.389 2°54.48 -999 -999 -999 -999 -999
2007-01-23 06:03:42 51°15.405 2°54.472 -999 -999 -999 -999 -999
2007-01-23 06:03:46 51°15.417 2°54.465 -999 -999 -999 -999 -999
2007-01-23 06:03:52 51°15.436 2°54.455 -999 -999 -999 -999 -999
2007-01-23 06:03:57 51°15.451 2°54.447 -999 -999 -999 -999 -999
2007-01-23 06:04:02 51°15.467 2°54.438 -999 -999 -999 -999 -999
2007-01-23 06:04:07 51°15.483 2°54.429 -999 -999 -999 -999 -999
2007-01-23 06:04:12 51°15.499 2°54.422 -999 -999 -999 -999 -999
2007-01-23 06:04:17 51°15.515 2°54.415 -999 -999 -999 -999 -999
2007-01-23 06:04:22 51°15.531 2°54.408 -999 -999 -999 -999 -999
2007-01-23 06:04:27 51°15.547 2°54.402 -999 -999 -999 -999 -999
2007-01-23 06:04:32 51°15.563 2°54.396 -999 -999 -999 -999 -999
2007-01-23 06:04:37 51°15.58 2°54.39 -999 -999 -999 -999 -999
2007-01-23 06:04:42 51°15.596 2°54.385 -999 -999 -999 -999 -999
2007-01-23 06:04:47 51°15.612 2°54.379 -999 -999 -999 -999 -999
2007-01-23 06:04:52 51°15.628 2°54.374 -999 -999 -999 -999 -999
2007-01-23 06:04:57 51°15.644 2°54.369 -999 -999 -999 -999 -999
2007-01-23 06:05:02 51°15.66 2°54.363 -999 -999 -999 -999 -999
2007-01-23 06:05:07 51°15.676 2°54.358 -999 -999 -999 -999 -999
2007-01-23 06:05:12 51°15.692 2°54.353 -999 -999 -999 -999 -999
2007-01-23 06:05:17 51°15.709 2°54.348 -999 -999 -999 -999 -999
2007-01-23 06:05:22 51°15.725 2°54.343 -999 -999 -999 -999 -999
2007-01-23 06:05:27 51°15.741 2°54.338 -999 -999 -999 -999 -999
2007-01-23 06:05:32 51°15.758 2°54.334 -999 -999 -999 -999 -999
2007-01-23 06:05:37 51°15.774 2°54.33 -999 -999 -999 -999 -999
2007-01-23 06:05:41 51°15.788 2°54.328 -999 -999 -999 -999 -999
2007-01-23 06:05:47 51°15.808 2°54.325 -999 -999 -999 -999 -999
2007-01-23 06:05:52 51°15.825 2°54.322 -999 -999 -999 -999 -999
2007-01-23 06:05:57 51°15.841 2°54.32 -999 -999 -999 -999 -999
2007-01-23 06:06:02 51°15.858 2°54.318 -999 -999 -999 -999 -999
2007-01-23 06:06:06 51°15.871 2°54.317 -999 -999 -999 -999 -999
2007-01-23 06:06:12 51°15.892 2°54.315 -999 -999 -999 -999 -999
2007-01-23 06:06:17 51°15.909 2°54.314 -999 -999 -999 -999 -999
2007-01-23 06:06:22 51°15.926 2°54.314 -999 -999 -999 -999 -999
2007-01-23 06:06:27 51°15.943 2°54.314 -999 -999 -999 -999 -999
2007-01-23 06:06:32 51°15.959 2°54.314 -999 -999 -999 -999 -999
2007-01-23 06:06:37 51°15.976 2°54.315 -999 -999 -999 -999 -999
2007-01-23 06:06:42 51°15.992 2°54.315 -999 -999 -999 -999 -999
2007-01-23 06:06:47 51°16.007 2°54.315 -999 -999 -999 -999 -999
2007-01-23 06:06:52 51°16.02 2°54.316 -999 -999 -999 -999 -999
2007-01-23 06:06:57 51°16.033 2°54.317 -999 -999 -999 -999 -999
2007-01-23 06:07:02 51°16.045 2°54.317 -999 -999 -999 -999 -999
2007-01-23 06:07:07 51°16.056 2°54.318 -999 -999 -999 -999 -999
2007-01-23 06:07:12 51°16.067 2°54.32 -999 -999 -999 -999 -999
2007-01-23 06:07:17 51°16.077 2°54.32 -999 -999 -999 -999 -999
2007-01-23 06:07:21 51°16.085 2°54.322 -999 -999 -999 -999 -999
2007-01-23 06:07:27 51°16.096 2°54.323 -999 -999 -999 -999 -999
2007-01-23 06:07:32 51°16.105 2°54.325 -999 -999 -999 -999 -999
2007-01-23 06:07:37 51°16.114 2°54.326 -999 -999 -999 -999 -999
2007-01-23 06:07:41 51°16.121 2°54.328 -999 -999 -999 -999 -999
2007-01-23 06:07:47 51°16.13 2°54.33 -999 -999 -999 -999 -999
2007-01-23 06:07:52 51°16.137 2°54.333 -999 -999 -999 -999 -999
2007-01-23 06:07:57 51°16.144 2°54.336 -999 -999 -999 -999 -999
2007-01-23 06:08:02 51°16.151 2°54.339 -999 -999 -999 -999 -999
2007-01-23 06:08:06 51°16.156 2°54.342 -999 -999 -999 -999 -999
2007-01-23 06:08:12 51°16.164 2°54.345 -999 -999 -999 -999 -999
2007-01-23 06:08:17 51°16.17 2°54.348 -999 -999 -999 -999 -999
2007-01-23 06:08:22 51°16.176 2°54.352 -999 -999 -999 -999 -999
2007-01-23 06:08:27 51°16.182 2°54.354 -999 -999 -999 -999 -999
2007-01-23 06:08:32 51°16.187 2°54.357 -999 -999 -999 -999 -999
2007-01-23 06:08:37 51°16.192 2°54.359 -999 -999 -999 -999 -999
2007-01-23 06:08:42 51°16.197 2°54.361 -999 -999 -999 -999 -999
2007-01-23 06:08:47 51°16.203 2°54.363 -999 -999 -999 -999 -999
2007-01-23 06:08:52 51°16.208 2°54.363 -999 -999 -999 -999 -999
2007-01-23 06:08:57 51°16.212 2°54.363 -999 -999 -999 -999 -999
2007-01-23 06:09:02 51°16.217 2°54.363 -999 -999 -999 -999 -999
2007-01-23 06:09:07 51°16.221 2°54.363 -999 -999 -999 -999 -999
2007-01-23 06:09:12 51°16.225 2°54.362 -999 -999 -999 -999 -999
2007-01-23 06:09:17 51°16.229 2°54.361 -999 -999 -999 -999 -999
2007-01-23 06:09:22 51°16.233 2°54.359 -999 -999 -999 -999 -999
2007-01-23 06:09:27 51°16.237 2°54.358 -999 -999 -999 -999 -999
2007-01-23 06:09:32 51°16.24 2°54.355 -999 -999 -999 -999 -999
2007-01-23 06:09:37 51°16.244 2°54.354 -999 -999 -999 -999 -999
2007-01-23 06:09:41 51°16.247 2°54.351 -999 -999 -999 -999 -999
2007-01-23 06:09:47 51°16.25 2°54.349 -999 -999 -999 -999 -999
2007-01-23 06:09:52 51°16.253 2°54.346 -999 -999 -999 -999 -999
2007-01-23 06:09:57 51°16.256 2°54.342 -999 -999 -999 -999 -999
2007-01-23 06:10:01 51°16.259 2°54.34 -999 -999 -999 -999 -999
2007-01-23 06:10:06 51°16.262 2°54.336 -999 -999 -999 -999 -999
2007-01-23 06:10:12 51°16.264 2°54.331 -999 -999 -999 -999 -999
2007-01-23 06:10:17 51°16.267 2°54.326 -999 -999 -999 -999 -999
2007-01-23 06:10:22 51°16.269 2°54.321 -999 -999 -999 -999 -999
2007-01-23 06:10:26 51°16.271 2°54.317 -999 -999 -999 -999 -999
2007-01-23 06:10:32 51°16.273 2°54.311 -999 -999 -999 -999 -999
2007-01-23 06:10:37 51°16.274 2°54.306 -999 -999 -999 -999 -999
2007-01-23 06:10:42 51°16.275 2°54.3 -999 -999 -999 -999 -999
2007-01-23 06:10:47 51°16.276 2°54.295 -999 -999 -999 -999 -999
2007-01-23 06:10:52 51°16.277 2°54.29 -999 -999 -999 -999 -999
2007-01-23 06:10:57 51°16.277 2°54.286 -999 -999 -999 -999 -999
2007-01-23 06:11:02 51°16.278 2°54.282 -999 -999 -999 -999 -999
2007-01-23 06:11:07 51°16.278 2°54.278 -999 -999 -999 -999 -999
2007-01-23 06:11:12 51°16.278 2°54.276 -999 -999 -999 -999 -999
2007-01-23 06:11:17 51°16.279 2°54.274 -999 -999 -999 -999 -999
2007-01-23 06:11:22 51°16.279 2°54.272 -999 -999 -999 -999 -999
2007-01-23 06:11:27 51°16.279 2°54.27 -999 -999 -999 -999 -999
2007-01-23 06:11:32 51°16.28 2°54.269 -999 -999 -999 -999 -999
2007-01-23 06:11:37 51°16.28 2°54.268 -999 -999 -999 -999 -999
2007-01-23 06:11:42 51°16.281 2°54.267 -999 -999 -999 -999 -999
2007-01-23 06:11:47 51°16.28 2°54.266 -999 -999 -999 -999 -999
2007-01-23 06:11:52 51°16.281 2°54.264 -999 -999 -999 -999 -999
2007-01-23 06:11:57 51°16.281 2°54.263 -999 -999 -999 -999 -999
2007-01-23 06:12:02 51°16.281 2°54.263 -999 -999 -999 -999 -999
2007-01-23 06:12:07 51°16.282 2°54.261 -999 -999 -999 -999 -999
2007-01-23 06:12:12 51°16.281 2°54.261 -999 -999 -999 -999 -999
2007-01-23 06:12:17 51°16.283 2°54.261 -999 -999 -999 -999 -999
2007-01-23 06:12:22 51°16.282 2°54.261 -999 -999 -999 -999 -999
2007-01-23 06:12:27 51°16.283 2°54.261 -999 -999 -999 -999 -999
2007-01-23 06:12:32 51°16.283 2°54.262 -999 -999 -999 -999 -999
2007-01-23 06:12:37 51°16.284 2°54.262 -999 -999 -999 -999 -999
2007-01-23 06:12:42 51°16.284 2°54.263 -999 -999 -999 -999 -999
2007-01-23 06:12:47 51°16.285 2°54.264 -999 -999 -999 -999 -999
2007-01-23 06:12:52 51°16.285 2°54.265 -999 -999 -999 -999 -999
2007-01-23 06:12:57 51°16.286 2°54.266 -999 -999 -999 -999 -999
2007-01-23 06:13:02 51°16.287 2°54.268 -999 -999 -999 -999 -999
2007-01-23 06:13:07 51°16.288 2°54.269 -999 -999 -999 -999 -999
2007-01-23 06:13:12 51°16.288 2°54.271 -999 -999 -999 -999 -999
2007-01-23 06:13:17 51°16.29 2°54.271 -999 -999 -999 -999 -999
2007-01-23 06:13:22 51°16.29 2°54.273 -999 -999 -999 -999 -999
2007-01-23 06:13:27 51°16.291 2°54.274 -999 -999 -999 -999 -999
2007-01-23 06:13:32 51°16.293 2°54.275 -999 -999 -999 -999 -999
2007-01-23 06:13:37 51°16.293 2°54.275 -999 -999 -999 -999 -999
2007-01-23 06:13:42 51°16.294 2°54.276 -999 -999 -999 -999 -999
2007-01-23 06:13:47 51°16.295 2°54.277 -999 -999 -999 -999 -999
2007-01-23 06:13:52 51°16.296 2°54.277 -999 -999 -999 -999 -999
2007-01-23 06:13:57 51°16.297 2°54.277 -999 -999 -999 -999 -999
2007-01-23 06:14:02 51°16.298 2°54.278 -999 -999 -999 -999 -999
2007-01-23 06:14:07 51°16.299 2°54.278 -999 -999 -999 -999 -999
2007-01-23 06:14:12 51°16.3 2°54.279 -999 -999 -999 -999 -999
2007-01-23 06:14:17 51°16.301 2°54.28 -999 -999 -999 -999 -999
2007-01-23 06:14:21 51°16.302 2°54.28 -999 -999 -999 -999 -999
2007-01-23 06:14:27 51°16.303 2°54.281 -999 -999 -999 -999 -999
2007-01-23 06:14:32 51°16.304 2°54.282 -999 -999 -999 -999 -999
2007-01-23 06:14:37 51°16.305 2°54.282 -999 -999 -999 -999 -999
2007-01-23 06:14:42 51°16.306 2°54.283 -999 -999 -999 -999 -999
2007-01-23 06:14:46 51°16.307 2°54.284 -999 -999 -999 -999 -999
2007-01-23 06:14:52 51°16.308 2°54.285 -999 -999 -999 -999 -999
2007-01-23 06:14:57 51°16.31 2°54.284 -999 -999 -999 -999 -999
2007-01-23 06:15:02 51°16.311 2°54.285 -999 -999 -999 -999 -999
2007-01-23 06:15:07 51°16.312 2°54.285 -999 -999 -999 -999 -999
2007-01-23 06:15:12 51°16.312 2°54.287 -999 -999 -999 -999 -999
2007-01-23 06:15:17 51°16.314 2°54.286 -999 -999 -999 -999 -999
2007-01-23 06:15:22 51°16.314 2°54.287 -999 -999 -999 -999 -999
2007-01-23 06:15:26 51°16.315 2°54.286 -999 -999 -999 -999 -999
2007-01-23 06:15:32 51°16.316 2°54.287 -999 -999 -999 -999 -999
2007-01-23 06:15:37 51°16.317 2°54.287 -999 -999 -999 -999 -999
2007-01-23 06:15:42 51°16.317 2°54.287 -999 -999 -999 -999 -999
2007-01-23 06:15:47 51°16.319 2°54.287 -999 -999 -999 -999 -999
2007-01-23 06:15:52 51°16.319 2°54.287 -999 -999 -999 -999 -999
2007-01-23 06:15:57 51°16.32 2°54.287 -999 -999 -999 -999 -999
2007-01-23 06:16:02 51°16.32 2°54.286 -999 -999 -999 -999 -999
2007-01-23 06:16:07 51°16.32 2°54.286 -999 -999 -999 -999 -999
2007-01-23 06:16:12 51°16.321 2°54.286 -999 -999 -999 -999 -999
2007-01-23 06:16:17 51°16.321 2°54.285 -999 -999 -999 -999 -999
2007-01-23 06:16:21 51°16.321 2°54.285 -999 -999 -999 -999 -999
2007-01-23 06:16:27 51°16.321 2°54.284 -999 -999 -999 -999 -999
2007-01-23 06:16:32 51°16.321 2°54.284 -999 -999 -999 -999 -999
2007-01-23 06:16:37 51°16.322 2°54.283 -999 -999 -999 -999 -999
2007-01-23 06:16:42 51°16.322 2°54.283 -999 -999 -999 -999 -999
2007-01-23 06:16:47 51°16.322 2°54.282 -999 -999 -999 -999 -999
2007-01-23 06:16:52 51°16.322 2°54.281 -999 -999 -999 -999 -999
2007-01-23 06:16:57 51°16.322 2°54.28 -999 -999 -999 -999 -999
2007-01-23 06:17:02 51°16.322 2°54.28 -999 -999 -999 -999 -999
2007-01-23 06:17:07 51°16.322 2°54.279 -999 -999 -999 -999 -999
2007-01-23 06:17:12 51°16.322 2°54.278 -999 -999 -999 -999 -999
2007-01-23 06:17:17 51°16.322 2°54.277 -999 -999 -999 -999 -999
2007-01-23 06:17:22 51°16.322 2°54.276 -999 -999 -999 -999 -999
2007-01-23 06:17:26 51°16.321 2°54.276 -999 -999 -999 -999 -999
2007-01-23 06:17:32 51°16.321 2°54.275 -999 -999 -999 -999 -999
2007-01-23 06:17:37 51°16.321 2°54.273 -999 -999 -999 -999 -999
2007-01-23 06:17:42 51°16.321 2°54.273 -999 -999 -999 -999 -999
2007-01-23 06:17:47 51°16.321 2°54.272 -999 -999 -999 -999 -999
2007-01-23 06:17:52 51°16.32 2°54.271 -999 -999 -999 -999 -999
2007-01-23 06:17:57 51°16.32 2°54.27 -999 -999 -999 -999 -999
2007-01-23 06:18:02 51°16.32 2°54.269 -999 -999 -999 -999 -999
2007-01-23 06:18:07 51°16.32 2°54.268 -999 -999 -999 -999 -999
2007-01-23 06:18:12 51°16.32 2°54.267 -999 -999 -999 -999 -999
2007-01-23 06:18:17 51°16.319 2°54.266 -999 -999 -999 -999 -999
2007-01-23 06:18:22 51°16.319 2°54.265 -999 -999 -999 -999 -999
2007-01-23 06:18:27 51°16.318 2°54.265 -999 -999 -999 -999 -999
2007-01-23 06:18:32 51°16.318 2°54.263 -999 -999 -999 -999 -999
2007-01-23 06:18:37 51°16.318 2°54.263 -999 -999 -999 -999 -999
2007-01-23 06:18:42 51°16.318 2°54.261 -999 -999 -999 -999 -999
2007-01-23 06:18:47 51°16.317 2°54.261 -999 -999 -999 -999 -999
2007-01-23 06:18:52 51°16.317 2°54.26 -999 -999 -999 -999 -999
2007-01-23 06:18:57 51°16.316 2°54.259 -999 -999 -999 -999 -999
2007-01-23 06:19:02 51°16.316 2°54.258 -999 -999 -999 -999 -999
2007-01-23 06:19:07 51°16.316 2°54.258 -999 -999 -999 -999 -999
2007-01-23 06:19:12 51°16.315 2°54.256 -999 -999 -999 -999 -999
2007-01-23 06:19:17 51°16.315 2°54.256 -999 -999 -999 -999 -999
2007-01-23 06:19:22 51°16.314 2°54.255 -999 -999 -999 -999 -999
2007-01-23 06:19:27 51°16.314 2°54.254 -999 -999 -999 -999 -999
2007-01-23 06:19:32 51°16.314 2°54.253 -999 -999 -999 -999 -999
2007-01-23 06:19:37 51°16.313 2°54.253 -999 -999 -999 -999 -999
2007-01-23 06:19:42 51°16.313 2°54.252 -999 -999 -999 -999 -999
2007-01-23 06:19:46 51°16.312 2°54.252 -999 -999 -999 -999 -999
2007-01-23 06:19:52 51°16.312 2°54.251 -999 -999 -999 -999 -999
2007-01-23 06:19:57 51°16.312 2°54.251 -999 -999 -999 -999 -999
2007-01-23 06:20:02 51°16.311 2°54.25 -999 -999 -999 -999 -999
2007-01-23 06:20:07 51°16.311 2°54.25 -999 -999 -999 -999 -999
2007-01-23 06:20:12 51°16.31 2°54.25 -999 -999 -999 -999 -999
2007-01-23 06:20:17 51°16.31 2°54.249 -999 -999 -999 -999 -999
2007-01-23 06:20:22 51°16.31 2°54.249 -999 -999 -999 -999 -999
2007-01-23 06:20:27 51°16.309 2°54.248 -999 -999 -999 -999 -999
2007-01-23 06:20:32 51°16.309 2°54.248 -999 -999 -999 -999 -999
2007-01-23 06:20:37 51°16.308 2°54.248 -999 -999 -999 -999 -999
2007-01-23 06:20:42 51°16.308 2°54.248 -999 -999 -999 -999 -999
2007-01-23 06:20:47 51°16.308 2°54.247 -999 -999 -999 -999 -999
2007-01-23 06:20:52 51°16.308 2°54.247 -999 -999 -999 -999 -999
2007-01-23 06:20:57 51°16.307 2°54.246 -999 -999 -999 -999 -999
2007-01-23 06:21:02 51°16.307 2°54.246 -999 -999 -999 -999 -999
2007-01-23 06:21:07 51°16.307 2°54.246 -999 -999 -999 -999 -999
2007-01-23 06:21:12 51°16.306 2°54.246 -999 -999 -999 -999 -999
2007-01-23 06:21:17 51°16.306 2°54.245 -999 -999 -999 -999 -999
2007-01-23 06:21:22 51°16.306 2°54.245 -999 -999 -999 -999 -999
2007-01-23 06:21:27 51°16.306 2°54.244 -999 -999 -999 -999 -999
2007-01-23 06:21:32 51°16.305 2°54.244 -999 -999 -999 -999 -999
2007-01-23 06:21:37 51°16.305 2°54.243 -999 -999 -999 -999 -999
2007-01-23 06:21:42 51°16.305 2°54.243 -999 -999 -999 -999 -999
2007-01-23 06:21:46 51°16.304 2°54.243 -999 -999 -999 -999 -999
2007-01-23 06:21:52 51°16.304 2°54.242 -999 -999 -999 -999 -999
2007-01-23 06:21:57 51°16.304 2°54.242 -999 -999 -999 -999 -999
2007-01-23 06:22:02 51°16.304 2°54.242 -999 -999 -999 -999 -999
2007-01-23 06:22:07 51°16.304 2°54.242 -999 -999 -999 -999 -999
2007-01-23 06:22:12 51°16.304 2°54.241 -999 -999 -999 -999 -999
2007-01-23 06:22:17 51°16.303 2°54.241 -999 -999 -999 -999 -999
2007-01-23 06:22:22 51°16.303 2°54.241 -999 -999 -999 -999 -999
2007-01-23 06:22:27 51°16.303 2°54.24 -999 -999 -999 -999 -999
2007-01-23 06:22:32 51°16.303 2°54.24 -999 -999 -999 -999 -999
2007-01-23 06:22:37 51°16.303 2°54.239 -999 -999 -999 -999 -999
2007-01-23 06:22:42 51°16.303 2°54.239 -999 -999 -999 -999 -999
2007-01-23 06:22:47 51°16.302 2°54.239 -999 -999 -999 -999 -999
2007-01-23 06:22:52 51°16.302 2°54.239 -999 -999 -999 -999 -999
2007-01-23 06:22:57 51°16.302 2°54.238 -999 -999 -999 -999 -999
2007-01-23 06:23:02 51°16.302 2°54.238 -999 -999 -999 -999 -999
2007-01-23 06:23:07 51°16.302 2°54.237 -999 -999 -999 -999 -999
2007-01-23 06:23:12 51°16.301 2°54.237 -999 -999 -999 -999 -999
2007-01-23 06:23:17 51°16.301 2°54.237 -999 -999 -999 -999 -999
2007-01-23 06:23:22 51°16.301 2°54.237 -999 -999 -999 -999 -999
2007-01-23 06:23:27 51°16.301 2°54.236 -999 -999 -999 -999 -999
2007-01-23 06:23:32 51°16.301 2°54.236 -999 -999 -999 -999 -999
2007-01-23 06:23:37 51°16.301 2°54.236 -999 -999 -999 -999 -999
2007-01-23 06:23:41 51°16.301 2°54.236 -999 -999 -999 -999 -999
2007-01-23 06:23:47 51°16.3 2°54.235 -999 -999 -999 -999 -999
2007-01-23 06:23:52 51°16.3 2°54.235 -999 -999 -999 -999 -999
2007-01-23 06:23:57 51°16.3 2°54.234 -999 -999 -999 -999 -999
2007-01-23 06:24:02 51°16.3 2°54.234 -999 -999 -999 -999 -999
2007-01-23 06:24:06 51°16.3 2°54.234 -999 -999 -999 -999 -999
2007-01-23 06:24:12 51°16.3 2°54.234 -999 -999 -999 -999 -999
2007-01-23 06:24:17 51°16.3 2°54.234 -999 -999 -999 -999 -999
2007-01-23 06:24:22 51°16.3 2°54.233 -999 -999 -999 -999 -999
2007-01-23 06:24:27 51°16.3 2°54.233 -999 -999 -999 -999 -999
2007-01-23 06:24:32 51°16.3 2°54.233 -999 -999 -999 -999 -999
2007-01-23 06:24:37 51°16.299 2°54.233 -999 -999 -999 -999 -999
2007-01-23 06:24:42 51°16.3 2°54.233 -999 -999 -999 -999 -999
2007-01-23 06:24:47 51°16.299 2°54.233 -999 -999 -999 -999 -999
2007-01-23 06:24:52 51°16.299 2°54.232 -999 -999 -999 -999 -999
2007-01-23 06:24:57 51°16.299 2°54.232 -999 -999 -999 -999 -999
2007-01-23 06:25:02 51°16.3 2°54.232 -999 -999 -999 -999 -999
2007-01-23 06:25:07 51°16.299 2°54.231 -999 -999 -999 -999 -999
2007-01-23 06:25:12 51°16.299 2°54.232 -999 -999 -999 -999 -999
2007-01-23 06:25:17 51°16.299 2°54.231 -999 -999 -999 -999 -999
2007-01-23 06:25:22 51°16.299 2°54.231 -999 -999 -999 -999 -999
2007-01-23 06:25:27 51°16.299 2°54.231 -999 -999 -999 -999 -999
2007-01-23 06:25:32 51°16.299 2°54.231 -999 -999 -999 -999 -999
2007-01-23 06:25:37 51°16.299 2°54.231 -999 -999 -999 -999 -999
2007-01-23 06:25:41 51°16.299 2°54.23 -999 -999 -999 -999 -999
2007-01-23 06:25:47 51°16.299 2°54.23 -999 -999 -999 -999 -999
2007-01-23 06:25:52 51°16.299 2°54.23 -999 -999 -999 -999 -999
2007-01-23 06:25:57 51°16.299 2°54.23 -999 -999 -999 -999 -999
2007-01-23 06:26:02 51°16.299 2°54.23 -999 -999 -999 -999 -999
2007-01-23 06:26:07 51°16.299 2°54.23 -999 -999 -999 -999 -999
2007-01-23 06:26:12 51°16.299 2°54.229 -999 -999 -999 -999 -999
2007-01-23 06:26:17 51°16.299 2°54.23 -999 -999 -999 -999 -999
2007-01-23 06:26:22 51°16.299 2°54.229 -999 -999 -999 -999 -999
2007-01-23 06:26:27 51°16.299 2°54.229 -999 -999 -999 -999 -999
2007-01-23 06:26:32 51°16.299 2°54.23 -999 -999 -999 -999 -999
2007-01-23 06:26:37 51°16.299 2°54.23 -999 -999 -999 -999 -999
2007-01-23 06:26:42 51°16.299 2°54.23 -999 -999 -999 -999 -999
2007-01-23 06:26:47 51°16.298 2°54.229 -999 -999 -999 -999 -999
2007-01-23 06:26:52 51°16.299 2°54.23 -999 -999 -999 -999 -999
2007-01-23 06:26:57 51°16.298 2°54.229 -999 -999 -999 -999 -999
2007-01-23 06:27:02 51°16.298 2°54.229 -999 -999 -999 -999 -999
2007-01-23 06:27:07 51°16.298 2°54.229 -999 -999 -999 -999 -999
2007-01-23 06:27:12 51°16.298 2°54.229 -999 -999 -999 -999 -999
2007-01-23 06:27:17 51°16.298 2°54.229 -999 -999 -999 -999 -999
2007-01-23 06:27:22 51°16.298 2°54.229 -999 -999 -999 -999 -999
2007-01-23 06:27:27 51°16.298 2°54.229 -999 -999 -999 -999 -999
2007-01-23 06:27:32 51°16.298 2°54.229 -999 -999 -999 -999 -999
2007-01-23 06:27:37 51°16.298 2°54.229 -999 -999 -999 -999 -999
2007-01-23 06:27:42 51°16.298 2°54.229 -999 -999 -999 -999 -999
2007-01-23 06:27:47 51°16.297 2°54.229 -999 -999 -999 -999 -999
2007-01-23 06:27:52 51°16.298 2°54.229 -999 -999 -999 -999 -999
2007-01-23 06:27:57 51°16.297 2°54.229 -999 -999 -999 -999 -999
2007-01-23 06:28:01 51°16.298 2°54.23 -999 -999 -999 -999 -999
2007-01-23 06:28:07 51°16.297 2°54.229 -999 -999 -999 -999 -999
2007-01-23 06:28:12 51°16.297 2°54.229 -999 -999 -999 -999 -999
2007-01-23 06:28:17 51°16.297 2°54.229 -999 -999 -999 -999 -999
2007-01-23 06:28:22 51°16.297 2°54.229 -999 -999 -999 -999 -999
2007-01-23 06:28:26 51°16.298 2°54.229 -999 -999 -999 -999 -999
2007-01-23 06:28:32 51°16.297 2°54.229 -999 -999 -999 -999 -999
2007-01-23 06:28:37 51°16.297 2°54.229 -999 -999 -999 -999 -999
2007-01-23 06:28:42 51°16.297 2°54.229 -999 -999 -999 -999 -999
2007-01-23 06:28:47 51°16.297 2°54.229 -999 -999 -999 -999 -999
2007-01-23 06:28:52 51°16.297 2°54.229 -999 -999 -999 -999 -999
2007-01-23 06:28:57 51°16.297 2°54.229 -999 -999 -999 -999 -999
2007-01-23 06:29:02 51°16.297 2°54.229 -999 -999 -999 -999 -999
2007-01-23 06:29:07 51°16.297 2°54.229 -999 -999 -999 -999 -999
2007-01-23 06:29:12 51°16.296 2°54.229 -999 -999 -999 -999 -999
2007-01-23 06:29:17 51°16.297 2°54.229 -999 -999 -999 -999 -999
2007-01-23 06:29:22 51°16.296 2°54.229 -999 -999 -999 -999 -999
2007-01-23 06:29:27 51°16.297 2°54.229 -999 -999 -999 -999 -999
2007-01-23 06:29:32 51°16.296 2°54.229 -999 -999 -999 -999 -999
2007-01-23 06:29:37 51°16.297 2°54.23 -999 -999 -999 -999 -999
2007-01-23 06:29:42 51°16.296 2°54.229 -999 -999 -999 -999 -999
2007-01-23 06:29:47 51°16.296 2°54.229 -999 -999 -999 -999 -999
2007-01-23 06:29:52 51°16.296 2°54.229 -999 -999 -999 -999 -999
2007-01-23 06:29:57 51°16.296 2°54.229 -999 -999 -999 -999 -999
2007-01-23 06:30:02 51°16.296 2°54.229 -999 -999 -999 -999 -999
2007-01-23 06:30:07 51°16.296 2°54.229 -999 -999 -999 -999 -999
2007-01-23 06:30:12 51°16.296 2°54.229 -999 -999 -999 -999 -999
2007-01-23 06:30:17 51°16.296 2°54.229 -999 -999 -999 -999 -999
2007-01-23 06:30:22 51°16.296 2°54.229 -999 -999 -999 -999 -999
2007-01-23 06:30:27 51°16.296 2°54.229 -999 -999 -999 -999 -999
2007-01-23 06:30:32 51°16.296 2°54.229 -999 -999 -999 -999 -999
2007-01-23 06:30:37 51°16.296 2°54.229 -999 -999 -999 -999 -999
2007-01-23 06:30:42 51°16.296 2°54.229 -999 -999 -999 -999 -999
2007-01-23 06:30:47 51°16.295 2°54.228 -999 -999 -999 -999 -999
2007-01-23 06:30:52 51°16.296 2°54.228 -999 -999 -999 -999 -999
2007-01-23 06:30:57 51°16.296 2°54.228 -999 -999 -999 -999 -999
2007-01-23 06:31:02 51°16.295 2°54.228 -999 -999 -999 -999 -999
2007-01-23 06:31:07 51°16.295 2°54.228 -999 -999 -999 -999 -999
2007-01-23 06:31:12 51°16.295 2°54.228 -999 -999 -999 -999 -999
2007-01-23 06:31:17 51°16.295 2°54.228 -999 -999 -999 -999 -999
2007-01-23 06:31:22 51°16.296 2°54.228 -999 -999 -999 -999 -999
2007-01-23 06:31:27 51°16.295 2°54.228 -999 -999 -999 -999 -999
2007-01-23 06:31:32 51°16.296 2°54.228 -999 -999 -999 -999 -999
2007-01-23 06:31:37 51°16.295 2°54.228 -999 -999 -999 -999 -999
2007-01-23 06:31:42 51°16.295 2°54.228 -999 -999 -999 -999 -999
2007-01-23 06:31:47 51°16.296 2°54.228 -999 -999 -999 -999 -999
2007-01-23 06:31:52 51°16.295 2°54.228 -999 -999 -999 -999 -999
2007-01-23 06:31:57 51°16.295 2°54.227 -999 -999 -999 -999 -999
2007-01-23 06:32:02 51°16.296 2°54.228 -999 -999 -999 -999 -999
2007-01-23 06:32:07 51°16.295 2°54.227 -999 -999 -999 -999 -999
2007-01-23 06:32:12 51°16.295 2°54.227 -999 -999 -999 -999 -999
2007-01-23 06:32:17 51°16.295 2°54.227 -999 -999 -999 -999 -999
2007-01-23 06:32:22 51°16.296 2°54.227 -999 -999 -999 -999 -999
2007-01-23 06:32:27 51°16.296 2°54.227 -999 -999 -999 -999 -999
2007-01-23 06:32:32 51°16.296 2°54.227 -999 -999 -999 -999 -999
2007-01-23 06:32:37 51°16.296 2°54.227 -999 -999 -999 -999 -999
2007-01-23 06:32:42 51°16.296 2°54.227 -999 -999 -999 -999 -999
2007-01-23 06:32:47 51°16.296 2°54.227 -999 -999 -999 -999 -999
2007-01-23 06:32:52 51°16.295 2°54.227 -999 -999 -999 -999 -999
2007-01-23 06:32:57 51°16.295 2°54.227 -999 -999 -999 -999 -999
2007-01-23 06:33:02 51°16.295 2°54.226 -999 -999 -999 -999 -999
2007-01-23 06:33:07 51°16.296 2°54.226 -999 -999 -999 -999 -999
2007-01-23 06:33:12 51°16.295 2°54.226 -999 -999 -999 -999 -999
2007-01-23 06:33:17 51°16.296 2°54.226 -999 -999 -999 -999 -999
2007-01-23 06:33:22 51°16.295 2°54.226 -999 -999 -999 -999 -999
2007-01-23 06:33:26 51°16.296 2°54.226 -999 -999 -999 -999 -999
2007-01-23 06:33:32 51°16.296 2°54.226 -999 -999 -999 -999 -999
2007-01-23 06:33:37 51°16.295 2°54.226 -999 -999 -999 -999 -999
2007-01-23 06:33:42 51°16.296 2°54.226 -999 -999 -999 -999 -999
2007-01-23 06:33:47 51°16.296 2°54.226 -999 -999 -999 -999 -999
2007-01-23 06:33:52 51°16.295 2°54.225 -999 -999 -999 -999 -999
2007-01-23 06:33:57 51°16.296 2°54.225 -999 -999 -999 -999 -999
2007-01-23 06:34:02 51°16.296 2°54.225 -999 -999 -999 -999 -999
2007-01-23 06:34:07 51°16.296 2°54.225 -999 -999 -999 -999 -999
2007-01-23 06:34:12 51°16.296 2°54.225 -999 -999 -999 -999 -999
2007-01-23 06:34:17 51°16.296 2°54.225 -999 -999 -999 -999 -999
2007-01-23 06:34:22 51°16.296 2°54.225 -999 -999 -999 -999 -999
2007-01-23 06:34:27 51°16.296 2°54.225 -999 -999 -999 -999 -999
2007-01-23 06:34:32 51°16.295 2°54.225 -999 -999 -999 -999 -999
2007-01-23 06:34:37 51°16.296 2°54.225 -999 -999 -999 -999 -999
2007-01-23 06:34:42 51°16.296 2°54.225 -999 -999 -999 -999 -999
2007-01-23 06:34:47 51°16.296 2°54.225 -999 -999 -999 -999 -999
2007-01-23 06:34:52 51°16.296 2°54.225 -999 -999 -999 -999 -999
2007-01-23 06:34:57 51°16.296 2°54.225 -999 -999 -999 -999 -999
2007-01-23 06:35:02 51°16.296 2°54.226 -999 -999 -999 -999 -999
2007-01-23 06:35:07 51°16.296 2°54.226 -999 -999 -999 -999 -999
2007-01-23 06:35:12 51°16.296 2°54.226 -999 -999 -999 -999 -999
2007-01-23 06:35:17 51°16.296 2°54.226 -999 -999 -999 -999 -999
2007-01-23 06:35:22 51°16.296 2°54.226 -999 -999 -999 -999 -999
2007-01-23 06:35:26 51°16.296 2°54.226 -999 -999 -999 -999 -999
2007-01-23 06:35:32 51°16.296 2°54.226 -999 -999 -999 -999 -999
2007-01-23 06:35:37 51°16.296 2°54.226 -999 -999 -999 -999 -999
2007-01-23 06:35:42 51°16.296 2°54.226 -999 -999 -999 -999 -999
2007-01-23 06:35:47 51°16.296 2°54.226 -999 -999 -999 -999 -999
2007-01-23 06:35:52 51°16.296 2°54.225 -999 -999 -999 -999 -999
2007-01-23 06:35:57 51°16.296 2°54.225 -999 -999 -999 -999 -999
2007-01-23 06:36:02 51°16.296 2°54.225 -999 -999 -999 -999 -999
2007-01-23 06:36:07 51°16.296 2°54.225 -999 -999 -999 -999 -999
2007-01-23 06:36:12 51°16.296 2°54.225 -999 -999 -999 -999 -999
2007-01-23 06:36:17 51°16.297 2°54.225 -999 -999 -999 -999 -999
2007-01-23 06:36:22 51°16.296 2°54.225 -999 -999 -999 -999 -999
2007-01-23 06:36:27 51°16.297 2°54.224 -999 -999 -999 -999 -999
2007-01-23 06:36:32 51°16.297 2°54.224 -999 -999 -999 -999 -999
2007-01-23 06:36:37 51°16.297 2°54.224 -999 -999 -999 -999 -999
2007-01-23 06:36:42 51°16.297 2°54.224 -999 -999 -999 -999 -999
2007-01-23 06:36:47 51°16.297 2°54.224 -999 -999 -999 -999 -999
2007-01-23 06:36:52 51°16.297 2°54.224 -999 -999 -999 -999 -999
2007-01-23 06:36:57 51°16.296 2°54.225 -999 -999 -999 -999 -999
2007-01-23 06:37:02 51°16.297 2°54.224 -999 -999 -999 -999 -999
2007-01-23 06:37:07 51°16.297 2°54.225 -999 -999 -999 -999 -999
2007-01-23 06:37:12 51°16.297 2°54.224 -999 -999 -999 -999 -999
2007-01-23 06:37:17 51°16.297 2°54.224 -999 -999 -999 -999 -999
2007-01-23 06:37:22 51°16.297 2°54.224 -999 -999 -999 -999 -999
2007-01-23 06:37:27 51°16.297 2°54.224 -999 -999 -999 -999 -999
2007-01-23 06:37:32 51°16.297 2°54.224 -999 -999 -999 -999 -999
2007-01-23 06:37:37 51°16.297 2°54.224 -999 -999 -999 -999 -999
2007-01-23 06:37:42 51°16.297 2°54.224 -999 -999 -999 -999 -999
2007-01-23 06:37:46 51°16.297 2°54.224 -999 -999 -999 -999 -999
2007-01-23 06:37:52 51°16.297 2°54.224 -999 -999 -999 -999 -999
2007-01-23 06:37:57 51°16.298 2°54.224 -999 -999 -999 -999 -999
2007-01-23 06:38:02 51°16.298 2°54.224 -999 -999 -999 -999 -999
2007-01-23 06:38:07 51°16.298 2°54.224 -999 -999 -999 -999 -999
2007-01-23 06:38:12 51°16.298 2°54.224 -999 -999 -999 -999 -999
2007-01-23 06:38:17 51°16.298 2°54.224 -999 -999 -999 -999 -999
2007-01-23 06:38:22 51°16.299 2°54.224 -999 -999 -999 -999 -999
2007-01-23 06:38:27 51°16.298 2°54.224 -999 -999 -999 -999 -999
2007-01-23 06:38:32 51°16.299 2°54.224 -999 -999 -999 -999 -999
2007-01-23 06:38:37 51°16.299 2°54.224 -999 -999 -999 -999 -999
2007-01-23 06:38:42 51°16.299 2°54.224 -999 -999 -999 -999 -999
2007-01-23 06:38:47 51°16.299 2°54.224 -999 -999 -999 -999 -999
2007-01-23 06:38:52 51°16.299 2°54.224 -999 -999 -999 -999 -999
2007-01-23 06:38:57 51°16.299 2°54.224 -999 -999 -999 -999 -999
2007-01-23 06:39:02 51°16.3 2°54.224 -999 -999 -999 -999 -999
2007-01-23 06:39:07 51°16.299 2°54.225 -999 -999 -999 -999 -999
2007-01-23 06:39:12 51°16.3 2°54.225 -999 -999 -999 -999 -999
2007-01-23 06:39:17 51°16.3 2°54.225 -999 -999 -999 -999 -999
2007-01-23 06:39:22 51°16.3 2°54.225 -999 -999 -999 -999 -999
2007-01-23 06:39:27 51°16.3 2°54.225 -999 -999 -999 -999 -999
2007-01-23 06:39:32 51°16.3 2°54.225 -999 -999 -999 -999 -999
2007-01-23 06:39:37 51°16.3 2°54.225 -999 -999 -999 -999 -999
2007-01-23 06:39:42 51°16.3 2°54.225 -999 -999 -999 -999 -999
2007-01-23 06:39:47 51°16.3 2°54.225 -999 -999 -999 -999 -999
2007-01-23 06:39:52 51°16.3 2°54.225 -999 -999 -999 -999 -999
2007-01-23 06:39:57 51°16.3 2°54.225 -999 -999 -999 -999 -999
2007-01-23 06:40:02 51°16.3 2°54.225 -999 -999 -999 -999 -999
2007-01-23 06:40:07 51°16.301 2°54.225 -999 -999 -999 -999 -999
2007-01-23 06:40:12 51°16.3 2°54.226 -999 -999 -999 -999 -999
2007-01-23 06:40:17 51°16.301 2°54.225 -999 -999 -999 -999 -999
2007-01-23 06:40:22 51°16.3 2°54.225 -999 -999 -999 -999 -999
2007-01-23 06:40:27 51°16.301 2°54.225 -999 -999 -999 -999 -999
2007-01-23 06:40:32 51°16.301 2°54.225 -999 -999 -999 -999 -999
2007-01-23 06:40:37 51°16.301 2°54.226 -999 -999 -999 -999 -999
2007-01-23 06:40:42 51°16.301 2°54.226 -999 -999 -999 -999 -999
2007-01-23 06:40:47 51°16.301 2°54.226 -999 -999 -999 -999 -999
2007-01-23 06:40:52 51°16.301 2°54.225 -999 -999 -999 -999 -999
2007-01-23 06:40:57 51°16.301 2°54.226 -999 -999 -999 -999 -999
2007-01-23 06:41:02 51°16.302 2°54.225 -999 -999 -999 -999 -999
2007-01-23 06:41:07 51°16.301 2°54.226 -999 -999 -999 -999 -999
2007-01-23 06:41:12 51°16.302 2°54.225 -999 -999 -999 -999 -999
2007-01-23 06:41:17 51°16.301 2°54.226 -999 -999 -999 -999 -999
2007-01-23 06:41:22 51°16.302 2°54.225 -999 -999 -999 -999 -999
2007-01-23 06:41:27 51°16.301 2°54.226 -999 -999 -999 -999 -999
2007-01-23 06:41:32 51°16.302 2°54.225 -999 -999 -999 -999 -999
2007-01-23 06:41:37 51°16.301 2°54.226 -999 -999 -999 -999 -999
2007-01-23 06:41:42 51°16.302 2°54.225 -999 -999 -999 -999 -999
2007-01-23 06:41:47 51°16.302 2°54.225 -999 -999 -999 -999 -999
2007-01-23 06:41:52 51°16.302 2°54.225 -999 -999 -999 -999 -999
2007-01-23 06:41:57 51°16.302 2°54.225 -999 -999 -999 -999 -999
2007-01-23 06:42:02 51°16.302 2°54.225 -999 -999 -999 -999 -999
2007-01-23 06:42:07 51°16.302 2°54.225 -999 -999 -999 -999 -999
2007-01-23 06:42:12 51°16.302 2°54.225 -999 -999 -999 -999 -999
2007-01-23 06:42:17 51°16.302 2°54.225 -999 -999 -999 -999 -999
2007-01-23 06:42:22 51°16.302 2°54.225 -999 -999 -999 -999 -999
2007-01-23 06:42:27 51°16.302 2°54.225 -999 -999 -999 -999 -999
2007-01-23 06:42:32 51°16.302 2°54.225 -999 -999 -999 -999 -999
2007-01-23 06:42:37 51°16.302 2°54.225 -999 -999 -999 -999 -999
2007-01-23 06:42:42 51°16.302 2°54.225 -999 -999 -999 -999 -999
2007-01-23 06:42:47 51°16.302 2°54.225 -999 -999 -999 -999 -999
2007-01-23 06:42:52 51°16.302 2°54.225 -999 -999 -999 -999 -999
2007-01-23 06:42:57 51°16.302 2°54.225 -999 -999 -999 -999 -999
2007-01-23 06:43:02 51°16.302 2°54.225 -999 -999 -999 -999 -999
2007-01-23 06:43:07 51°16.302 2°54.225 -999 -999 -999 -999 -999
2007-01-23 06:43:12 51°16.301 2°54.225 -999 -999 -999 -999 -999
2007-01-23 06:43:17 51°16.302 2°54.225 -999 -999 -999 -999 -999
2007-01-23 06:43:22 51°16.302 2°54.225 -999 -999 -999 -999 -999
2007-01-23 06:43:27 51°16.301 2°54.225 -999 -999 -999 -999 -999
2007-01-23 06:43:32 51°16.301 2°54.225 -999 -999 -999 -999 -999
2007-01-23 06:43:37 51°16.302 2°54.225 -999 -999 -999 -999 -999
2007-01-23 06:43:42 51°16.301 2°54.225 -999 -999 -999 -999 -999
2007-01-23 06:43:47 51°16.301 2°54.225 -999 -999 -999 -999 -999
2007-01-23 06:43:52 51°16.301 2°54.225 -999 -999 -999 -999 -999
2007-01-23 06:43:57 51°16.301 2°54.225 -999 -999 -999 -999 -999
2007-01-23 06:44:02 51°16.301 2°54.225 -999 -999 -999 -999 -999
2007-01-23 06:44:07 51°16.301 2°54.225 -999 -999 -999 -999 -999
2007-01-23 06:44:12 51°16.301 2°54.225 -999 -999 -999 -999 -999
2007-01-23 06:44:17 51°16.301 2°54.225 -999 -999 -999 -999 -999
2007-01-23 06:44:22 51°16.301 2°54.225 -999 -999 -999 -999 -999
2007-01-23 06:44:27 51°16.301 2°54.225 -999 -999 -999 -999 -999
2007-01-23 06:44:32 51°16.3 2°54.224 -999 -999 -999 -999 -999
2007-01-23 06:44:37 51°16.301 2°54.224 -999 -999 -999 -999 -999
2007-01-23 06:44:42 51°16.3 2°54.224 -999 -999 -999 -999 -999
2007-01-23 06:44:47 51°16.3 2°54.224 -999 -999 -999 -999 -999
2007-01-23 06:44:52 51°16.3 2°54.224 -999 -999 -999 -999 -999
2007-01-23 06:44:57 51°16.3 2°54.224 -999 -999 -999 -999 -999
2007-01-23 06:45:02 51°16.3 2°54.224 -999 -999 -999 -999 -999
2007-01-23 06:45:07 51°16.3 2°54.224 -999 -999 -999 -999 -999
2007-01-23 06:45:12 51°16.3 2°54.224 -999 -999 -999 -999 -999
2007-01-23 06:45:17 51°16.3 2°54.224 -999 -999 -999 -999 -999
2007-01-23 06:45:22 51°16.3 2°54.224 -999 -999 -999 -999 -999
2007-01-23 06:45:27 51°16.3 2°54.224 -999 -999 -999 -999 -999
2007-01-23 06:45:32 51°16.299 2°54.224 -999 -999 -999 -999 -999
2007-01-23 06:45:37 51°16.299 2°54.224 -999 -999 -999 -999 -999
2007-01-23 06:45:42 51°16.3 2°54.224 -999 -999 -999 -999 -999
2007-01-23 06:45:47 51°16.299 2°54.224 -999 -999 -999 -999 -999
2007-01-23 06:45:52 51°16.3 2°54.224 -999 -999 -999 -999 -999
2007-01-23 06:45:57 51°16.299 2°54.224 -999 -999 -999 -999 -999
2007-01-23 06:46:02 51°16.3 2°54.224 -999 -999 -999 -999 -999
2007-01-23 06:46:07 51°16.299 2°54.224 -999 -999 -999 -999 -999
2007-01-23 06:46:12 51°16.3 2°54.224 -999 -999 -999 -999 -999
2007-01-23 06:46:17 51°16.299 2°54.225 -999 -999 -999 -999 -999
2007-01-23 06:46:22 51°16.299 2°54.224 -999 -999 -999 -999 -999
2007-01-23 06:46:27 51°16.299 2°54.225 -999 -999 -999 -999 -999
2007-01-23 06:46:32 51°16.299 2°54.225 -999 -999 -999 -999 -999
2007-01-23 06:46:37 51°16.299 2°54.225 -999 -999 -999 -999 -999
2007-01-23 06:46:42 51°16.299 2°54.225 -999 -999 -999 -999 -999
2007-01-23 06:46:47 51°16.299 2°54.225 -999 -999 -999 -999 -999
2007-01-23 06:46:52 51°16.299 2°54.225 -999 -999 -999 -999 -999
2007-01-23 06:46:57 51°16.299 2°54.225 -999 -999 -999 -999 -999
2007-01-23 06:47:02 51°16.299 2°54.225 -999 -999 -999 -999 -999
2007-01-23 06:47:07 51°16.299 2°54.225 -999 -999 -999 -999 -999
2007-01-23 06:47:12 51°16.299 2°54.225 -999 -999 -999 -999 -999
2007-01-23 06:47:17 51°16.299 2°54.225 -999 -999 -999 -999 -999
2007-01-23 06:47:22 51°16.299 2°54.225 -999 -999 -999 -999 -999
2007-01-23 06:47:27 51°16.299 2°54.224 -999 -999 -999 -999 -999
2007-01-23 06:47:32 51°16.299 2°54.225 -999 -999 -999 -999 -999
2007-01-23 06:47:37 51°16.299 2°54.224 -999 -999 -999 -999 -999
2007-01-23 06:47:42 51°16.299 2°54.224 -999 -999 -999 -999 -999
2007-01-23 06:47:47 51°16.3 2°54.224 -999 -999 -999 -999 -999
2007-01-23 06:47:52 51°16.299 2°54.224 -999 -999 -999 -999 -999
2007-01-23 06:47:57 51°16.3 2°54.223 -999 -999 -999 -999 -999
2007-01-23 06:48:02 51°16.299 2°54.224 -999 -999 -999 -999 -999
2007-01-23 06:48:07 51°16.3 2°54.223 -999 -999 -999 -999 -999
2007-01-23 06:48:12 51°16.299 2°54.224 -999 -999 -999 -999 -999
2007-01-23 06:48:17 51°16.3 2°54.223 -999 -999 -999 -999 -999
2007-01-23 06:48:22 51°16.3 2°54.223 -999 -999 -999 -999 -999
2007-01-23 06:48:27 51°16.3 2°54.223 -999 -999 -999 -999 -999
2007-01-23 06:48:32 51°16.3 2°54.223 -999 -999 -999 -999 -999
2007-01-23 06:48:37 51°16.3 2°54.223 -999 -999 -999 -999 -999
2007-01-23 06:48:42 51°16.299 2°54.223 -999 -999 -999 -999 -999
2007-01-23 06:48:47 51°16.3 2°54.222 -999 -999 -999 -999 -999
2007-01-23 06:48:52 51°16.3 2°54.222 -999 -999 -999 -999 -999
2007-01-23 06:48:57 51°16.3 2°54.222 -999 -999 -999 -999 -999
2007-01-23 06:49:02 51°16.3 2°54.222 -999 -999 -999 -999 -999
2007-01-23 06:49:07 51°16.3 2°54.222 -999 -999 -999 -999 -999
2007-01-23 06:49:12 51°16.301 2°54.221 -999 -999 -999 -999 -999
2007-01-23 06:49:17 51°16.3 2°54.221 -999 -999 -999 -999 -999
2007-01-23 06:49:22 51°16.3 2°54.221 -999 -999 -999 -999 -999
2007-01-23 06:49:27 51°16.3 2°54.221 -999 -999 -999 -999 -999
2007-01-23 06:49:32 51°16.3 2°54.221 -999 -999 -999 -999 -999
2007-01-23 06:49:37 51°16.3 2°54.221 -999 -999 -999 -999 -999
2007-01-23 06:49:42 51°16.3 2°54.221 -999 -999 -999 -999 -999
2007-01-23 06:49:47 51°16.3 2°54.221 -999 -999 -999 -999 -999
2007-01-23 06:49:52 51°16.3 2°54.22 -999 -999 -999 -999 -999
2007-01-23 06:49:57 51°16.301 2°54.22 -999 -999 -999 -999 -999
2007-01-23 06:50:02 51°16.3 2°54.22 -999 -999 -999 -999 -999
2007-01-23 06:50:07 51°16.301 2°54.22 -999 -999 -999 -999 -999
2007-01-23 06:50:12 51°16.301 2°54.22 -999 -999 -999 -999 -999
2007-01-23 06:50:17 51°16.301 2°54.22 -999 -999 -999 -999 -999
2007-01-23 06:50:22 51°16.301 2°54.22 -999 -999 -999 -999 -999
2007-01-23 06:50:27 51°16.301 2°54.22 -999 -999 -999 -999 -999
2007-01-23 06:50:32 51°16.301 2°54.219 -999 -999 -999 -999 -999
2007-01-23 06:50:37 51°16.301 2°54.219 -999 -999 -999 -999 -999
2007-01-23 06:50:42 51°16.301 2°54.219 -999 -999 -999 -999 -999
2007-01-23 06:50:47 51°16.301 2°54.219 -999 -999 -999 -999 -999
2007-01-23 06:50:52 51°16.3 2°54.219 -999 -999 -999 -999 -999
2007-01-23 06:50:57 51°16.301 2°54.219 -999 -999 -999 -999 -999
2007-01-23 06:51:02 51°16.301 2°54.219 -999 -999 -999 -999 -999
2007-01-23 06:51:07 51°16.301 2°54.219 -999 -999 -999 -999 -999
2007-01-23 06:51:12 51°16.301 2°54.219 -999 -999 -999 -999 -999
2007-01-23 06:51:17 51°16.3 2°54.219 -999 -999 -999 -999 -999
2007-01-23 06:51:22 51°16.301 2°54.219 -999 -999 -999 -999 -999
2007-01-23 06:51:27 51°16.301 2°54.22 -999 -999 -999 -999 -999
2007-01-23 06:51:32 51°16.301 2°54.219 -999 -999 -999 -999 -999
2007-01-23 06:51:37 51°16.301 2°54.219 -999 -999 -999 -999 -999
2007-01-23 06:51:42 51°16.301 2°54.219 -999 -999 -999 -999 -999
2007-01-23 06:51:47 51°16.301 2°54.219 -999 -999 -999 -999 -999
2007-01-23 06:51:52 51°16.301 2°54.22 -999 -999 -999 -999 -999
2007-01-23 06:51:57 51°16.301 2°54.22 -999 -999 -999 -999 -999
2007-01-23 06:52:02 51°16.302 2°54.22 -999 -999 -999 -999 -999
2007-01-23 06:52:07 51°16.302 2°54.22 -999 -999 -999 -999 -999
2007-01-23 06:52:12 51°16.301 2°54.22 -999 -999 -999 -999 -999
2007-01-23 06:52:17 51°16.302 2°54.22 -999 -999 -999 -999 -999
2007-01-23 06:52:22 51°16.302 2°54.22 -999 -999 -999 -999 -999
2007-01-23 06:52:27 51°16.301 2°54.22 -999 -999 -999 -999 -999
2007-01-23 06:52:32 51°16.301 2°54.22 -999 -999 -999 -999 -999
2007-01-23 06:52:37 51°16.302 2°54.22 -999 -999 -999 -999 -999
2007-01-23 06:52:42 51°16.301 2°54.22 -999 -999 -999 -999 -999
2007-01-23 06:52:47 51°16.302 2°54.22 -999 -999 -999 -999 -999
2007-01-23 06:52:52 51°16.301 2°54.22 -999 -999 -999 -999 -999
2007-01-23 06:52:57 51°16.302 2°54.22 -999 -999 -999 -999 -999
2007-01-23 06:53:02 51°16.301 2°54.22 -999 -999 -999 -999 -999
2007-01-23 06:53:07 51°16.302 2°54.22 -999 -999 -999 -999 -999
2007-01-23 06:53:12 51°16.301 2°54.22 -999 -999 -999 -999 -999
2007-01-23 06:53:17 51°16.302 2°54.22 -999 -999 -999 -999 -999
2007-01-23 06:53:22 51°16.302 2°54.22 -999 -999 -999 -999 -999
2007-01-23 06:53:27 51°16.302 2°54.22 -999 -999 -999 -999 -999
2007-01-23 06:53:32 51°16.301 2°54.221 -999 -999 -999 -999 -999
2007-01-23 06:53:37 51°16.302 2°54.22 -999 -999 -999 -999 -999
2007-01-23 06:53:42 51°16.302 2°54.22 -999 -999 -999 -999 -999
2007-01-23 06:53:47 51°16.302 2°54.22 -999 -999 -999 -999 -999
2007-01-23 06:53:52 51°16.301 2°54.22 -999 -999 -999 -999 -999
2007-01-23 06:53:57 51°16.302 2°54.22 -999 -999 -999 -999 -999
2007-01-23 06:54:02 51°16.302 2°54.219 -999 -999 -999 -999 -999
2007-01-23 06:54:07 51°16.302 2°54.219 -999 -999 -999 -999 -999
2007-01-23 06:54:12 51°16.302 2°54.219 -999 -999 -999 -999 -999
2007-01-23 06:54:17 51°16.302 2°54.219 -999 -999 -999 -999 -999
2007-01-23 06:54:22 51°16.302 2°54.219 -999 -999 -999 -999 -999
2007-01-23 06:54:27 51°16.302 2°54.219 -999 -999 -999 -999 -999
2007-01-23 06:54:32 51°16.302 2°54.219 -999 -999 -999 -999 -999
2007-01-23 06:54:37 51°16.302 2°54.219 -999 -999 -999 -999 -999
2007-01-23 06:54:42 51°16.302 2°54.219 -999 -999 -999 -999 -999
2007-01-23 06:54:47 51°16.302 2°54.219 -999 -999 -999 -999 -999
2007-01-23 06:54:52 51°16.302 2°54.219 -999 -999 -999 -999 -999
2007-01-23 06:54:57 51°16.302 2°54.219 -999 -999 -999 -999 -999
2007-01-23 06:55:02 51°16.302 2°54.219 -999 -999 -999 -999 -999
2007-01-23 06:55:07 51°16.302 2°54.219 -999 -999 -999 -999 -999
2007-01-23 06:55:12 51°16.302 2°54.219 -999 -999 -999 -999 -999
2007-01-23 06:55:17 51°16.302 2°54.219 -999 -999 -999 -999 -999
2007-01-23 06:55:22 51°16.302 2°54.219 -999 -999 -999 -999 -999
2007-01-23 06:55:27 51°16.302 2°54.219 -999 -999 -999 -999 -999
2007-01-23 06:55:32 51°16.302 2°54.219 -999 -999 -999 -999 -999
2007-01-23 06:55:37 51°16.302 2°54.219 -999 -999 -999 -999 -999
2007-01-23 06:55:42 51°16.302 2°54.219 -999 -999 -999 -999 -999
2007-01-23 06:55:47 51°16.301 2°54.219 -999 -999 -999 -999 -999
2007-01-23 06:55:52 51°16.301 2°54.219 -999 -999 -999 -999 -999
2007-01-23 06:55:57 51°16.301 2°54.219 -999 -999 -999 -999 -999
2007-01-23 06:56:02 51°16.301 2°54.219 -999 -999 -999 -999 -999
2007-01-23 06:56:07 51°16.302 2°54.219 -999 -999 -999 -999 -999
2007-01-23 06:56:12 51°16.301 2°54.219 -999 -999 -999 -999 -999
2007-01-23 06:56:17 51°16.301 2°54.219 -999 -999 -999 -999 -999
2007-01-23 06:56:22 51°16.301 2°54.219 -999 -999 -999 -999 -999
2007-01-23 06:56:27 51°16.301 2°54.219 -999 -999 -999 -999 -999
2007-01-23 06:56:32 51°16.301 2°54.219 -999 -999 -999 -999 -999
2007-01-23 06:56:37 51°16.301 2°54.219 -999 -999 -999 -999 -999
2007-01-23 06:56:42 51°16.301 2°54.219 -999 -999 -999 -999 -999
2007-01-23 06:56:47 51°16.301 2°54.219 -999 -999 -999 -999 -999
2007-01-23 06:56:52 51°16.301 2°54.219 -999 -999 -999 -999 -999
2007-01-23 06:56:57 51°16.301 2°54.219 -999 -999 -999 -999 -999
2007-01-23 06:57:02 51°16.301 2°54.219 -999 -999 -999 -999 -999
2007-01-23 06:57:07 51°16.301 2°54.219 -999 -999 -999 -999 -999
2007-01-23 06:57:12 51°16.301 2°54.219 -999 -999 -999 -999 -999
2007-01-23 06:57:17 51°16.301 2°54.219 -999 -999 -999 -999 -999
2007-01-23 06:57:22 51°16.301 2°54.219 -999 -999 -999 -999 -999
2007-01-23 06:57:27 51°16.301 2°54.219 -999 -999 -999 -999 -999
2007-01-23 06:57:32 51°16.301 2°54.219 -999 -999 -999 -999 -999
2007-01-23 06:57:37 51°16.301 2°54.219 -999 -999 -999 -999 -999
2007-01-23 06:57:42 51°16.301 2°54.219 -999 -999 -999 -999 -999
2007-01-23 06:57:47 51°16.301 2°54.22 -999 -999 -999 -999 -999
2007-01-23 06:57:52 51°16.301 2°54.22 -999 -999 -999 -999 -999
2007-01-23 06:57:57 51°16.301 2°54.219 -999 -999 -999 -999 -999
2007-01-23 06:58:02 51°16.301 2°54.22 -999 -999 -999 -999 -999
2007-01-23 06:58:07 51°16.301 2°54.22 -999 -999 -999 -999 -999
2007-01-23 06:58:12 51°16.301 2°54.22 -999 -999 -999 -999 -999
2007-01-23 06:58:17 51°16.301 2°54.22 -999 -999 -999 -999 -999
2007-01-23 06:58:22 51°16.301 2°54.22 -999 -999 -999 -999 -999
2007-01-23 06:58:27 51°16.301 2°54.22 -999 -999 -999 -999 -999
2007-01-23 06:58:32 51°16.301 2°54.22 -999 -999 -999 -999 -999
2007-01-23 06:58:37 51°16.302 2°54.22 -999 -999 -999 -999 -999
2007-01-23 06:58:42 51°16.301 2°54.22 -999 -999 -999 -999 -999
2007-01-23 06:58:47 51°16.302 2°54.22 -999 -999 -999 -999 -999
2007-01-23 06:58:52 51°16.301 2°54.22 -999 -999 -999 -999 -999
2007-01-23 06:58:57 51°16.302 2°54.22 -999 -999 -999 -999 -999
2007-01-23 06:59:02 51°16.301 2°54.22 -999 -999 -999 -999 -999
2007-01-23 06:59:07 51°16.302 2°54.22 -999 -999 -999 -999 -999
2007-01-23 06:59:12 51°16.301 2°54.22 -999 -999 -999 -999 -999
2007-01-23 06:59:17 51°16.301 2°54.22 -999 -999 -999 -999 -999
2007-01-23 06:59:22 51°16.301 2°54.219 -999 -999 -999 -999 -999
2007-01-23 06:59:27 51°16.301 2°54.219 -999 -999 -999 -999 -999
2007-01-23 06:59:32 51°16.301 2°54.219 -999 -999 -999 -999 -999
2007-01-23 06:59:37 51°16.301 2°54.22 -999 -999 -999 -999 -999
2007-01-23 06:59:42 51°16.301 2°54.219 -999 -999 -999 -999 -999
2007-01-23 06:59:47 51°16.301 2°54.219 -999 -999 -999 -999 -999
2007-01-23 06:59:52 51°16.301 2°54.219 -999 -999 -999 -999 -999
2007-01-23 06:59:57 51°16.301 2°54.219 -999 -999 -999 -999 -999
2007-01-23 07:00:02 51°16.301 2°54.219 -999 -999 -999 -999 -999
2007-01-23 07:00:07 51°16.3 2°54.219 -999 -999 -999 -999 -999
2007-01-23 07:00:12 51°16.301 2°54.219 -999 -999 -999 -999 -999
2007-01-23 07:00:17 51°16.3 2°54.219 -999 -999 -999 -999 -999
2007-01-23 07:00:22 51°16.3 2°54.219 -999 -999 -999 -999 -999
2007-01-23 07:00:27 51°16.3 2°54.219 -999 -999 -999 -999 -999
2007-01-23 07:00:32 51°16.3 2°54.219 -999 -999 -999 -999 -999
2007-01-23 07:00:37 51°16.3 2°54.219 -999 -999 -999 -999 -999
2007-01-23 07:00:42 51°16.3 2°54.219 -999 -999 -999 -999 -999
2007-01-23 07:00:47 51°16.3 2°54.219 -999 -999 -999 -999 -999
2007-01-23 07:00:52 51°16.3 2°54.219 -999 -999 -999 -999 -999
2007-01-23 07:00:57 51°16.301 2°54.219 -999 -999 -999 -999 -999
2007-01-23 07:01:02 51°16.3 2°54.219 -999 -999 -999 -999 -999
2007-01-23 07:01:07 51°16.3 2°54.219 -999 -999 -999 -999 -999
2007-01-23 07:01:12 51°16.301 2°54.219 -999 -999 -999 -999 -999
2007-01-23 07:01:17 51°16.3 2°54.219 -999 -999 -999 -999 -999
2007-01-23 07:01:22 51°16.3 2°54.219 -999 -999 -999 -999 -999
2007-01-23 07:01:27 51°16.3 2°54.219 -999 -999 -999 -999 -999
2007-01-23 07:01:32 51°16.3 2°54.219 -999 -999 -999 -999 -999
2007-01-23 07:01:37 51°16.301 2°54.219 -999 -999 -999 -999 -999
2007-01-23 07:01:42 51°16.3 2°54.219 -999 -999 -999 -999 -999
2007-01-23 07:01:47 51°16.3 2°54.219 -999 -999 -999 -999 -999
2007-01-23 07:01:52 51°16.3 2°54.219 -999 -999 -999 -999 -999
2007-01-23 07:01:57 51°16.3 2°54.219 -999 -999 -999 -999 -999
2007-01-23 07:02:02 51°16.3 2°54.219 -999 -999 -999 -999 -999
2007-01-23 07:02:07 51°16.3 2°54.219 -999 -999 -999 -999 -999
2007-01-23 07:02:12 51°16.3 2°54.219 -999 -999 -999 -999 -999
2007-01-23 07:02:17 51°16.3 2°54.219 -999 -999 -999 -999 -999
2007-01-23 07:02:22 51°16.3 2°54.219 -999 -999 -999 -999 -999
2007-01-23 07:02:27 51°16.3 2°54.219 -999 -999 -999 -999 -999
2007-01-23 07:02:32 51°16.3 2°54.219 -999 -999 -999 -999 -999
2007-01-23 07:02:37 51°16.3 2°54.219 -999 -999 -999 -999 -999
2007-01-23 07:02:42 51°16.3 2°54.219 -999 -999 -999 -999 -999
2007-01-23 07:02:47 51°16.3 2°54.219 -999 -999 -999 -999 -999
2007-01-23 07:02:52 51°16.3 2°54.219 -999 -999 -999 -999 -999
2007-01-23 07:02:57 51°16.3 2°54.219 -999 -999 -999 -999 -999
2007-01-23 07:03:02 51°16.3 2°54.219 -999 -999 -999 -999 -999
2007-01-23 07:03:07 51°16.3 2°54.219 -999 -999 -999 -999 -999
2007-01-23 07:03:12 51°16.3 2°54.219 -999 -999 -999 -999 -999
2007-01-23 07:03:17 51°16.3 2°54.219 -999 -999 -999 -999 -999
2007-01-23 07:03:22 51°16.3 2°54.219 -999 -999 -999 -999 -999
2007-01-23 07:03:27 51°16.3 2°54.218 -999 -999 -999 -999 -999
2007-01-23 07:03:32 51°16.3 2°54.219 -999 -999 -999 -999 -999
2007-01-23 07:03:37 51°16.3 2°54.219 -999 -999 -999 -999 -999
2007-01-23 07:03:42 51°16.3 2°54.218 -999 -999 -999 -999 -999
2007-01-23 07:03:47 51°16.3 2°54.219 -999 -999 -999 -999 -999
2007-01-23 07:03:52 51°16.3 2°54.218 -999 -999 -999 -999 -999
2007-01-23 07:03:57 51°16.3 2°54.219 -999 -999 -999 -999 -999
2007-01-23 07:04:02 51°16.3 2°54.219 -999 -999 -999 -999 -999
2007-01-23 07:04:07 51°16.3 2°54.219 -999 -999 -999 -999 -999
2007-01-23 07:04:12 51°16.3 2°54.219 -999 -999 -999 -999 -999
2007-01-23 07:04:17 51°16.3 2°54.219 -999 -999 -999 -999 -999
2007-01-23 07:04:22 51°16.3 2°54.219 -999 -999 -999 -999 -999
2007-01-23 07:04:27 51°16.3 2°54.219 -999 -999 -999 -999 -999
2007-01-23 07:04:32 51°16.3 2°54.219 -999 -999 -999 -999 -999
2007-01-23 07:04:37 51°16.3 2°54.219 -999 -999 -999 -999 -999
2007-01-23 07:04:42 51°16.3 2°54.219 -999 -999 -999 -999 -999
2007-01-23 07:04:47 51°16.3 2°54.219 -999 -999 -999 -999 -999
2007-01-23 07:04:52 51°16.3 2°54.219 -999 -999 -999 -999 -999
2007-01-23 07:04:57 51°16.3 2°54.219 -999 -999 -999 -999 -999